N5JXS Weather Reports


time (UTC)temp
F
wind
direction
speed
knots
gust
knots
rain 1hr
in
rain 24hr
in
rain mn
in
humidity
%
barometer
mb
20260508030047 53 26 0.0 0.0 0.00 0.05 0.05 43 1019.2
20260508025542 53 69 0.9 0.9 0.00 0.05 0.05 39 1019.2
20260508025039 52 102 1.7 1.7 0.00 0.05 0.05 38 1019.0
20260508024535 52 101 1.7 2.6 0.00 0.05 0.05 40 1019.0
20260508024033 52 94 0.9 0.9 0.00 0.05 0.05 39 1018.9
20260508023529 52 96 1.7 1.7 0.00 0.05 0.05 40 1018.6
20260508023027 52 92 0.9 1.7 0.00 0.05 0.05 41 1019.0
20260508022522 52 108 0.9 1.7 0.00 0.05 0.05 40 1018.9
20260508022019 53 107 1.7 1.7 0.00 0.05 0.05 40 1018.7
20260508021515 53 59 0.9 1.7 0.00 0.05 0.05 38 1018.7
20260508021011 53 95 0.9 0.9 0.00 0.05 0.05 41 1018.7
20260508020509 53 97 1.7 1.7 0.00 0.05 0.05 41 1018.6
20260508020007 53 168 2.6 2.6 0.00 0.05 0.05 39 1018.7
20260508015504 53 14 0.0 0.9 0.00 0.05 0.05 40 1018.2
20260508015000 54 79 0.0 0.9 0.00 0.05 0.05 39 1018.6
20260508014457 55 78 0.0 0.0 0.00 0.05 0.05 37 1018.5
20260508013953 56 75 1.7 1.7 0.00 0.05 0.05 37 1018.5
20260508013449 57 69 0.0 0.9 0.00 0.05 0.05 36 1018.4
20260508012947 57 66 0.9 0.9 0.00 0.05 0.05 33 1018.6
20260508012444 58 34 0.0 0.0 0.00 0.05 0.05 33 1018.2
20260508011941 59 30 0.0 0.0 0.00 0.05 0.05 32 1017.9
20260508011439 59 33 0.0 0.0 0.00 0.05 0.05 30 1018.2
20260508010936 59 34 2.6 2.6 0.00 0.05 0.05 30 1018.5
20260508010433 59 34 0.9 0.9 0.00 0.05 0.05 29 1018.1
20260508005930 59 9 0.0 0.0 0.00 0.05 0.05 29 1018.0
20260508005427 59 29 0.9 0.9 0.00 0.05 0.05 29 1018.0
20260508004923 59 23 0.0 0.9 0.00 0.05 0.05 29 1018.1
20260508004420 59 25 0.9 0.9 0.00 0.05 0.05 29 1018.0
20260508003916 59 14 2.6 4.3 0.00 0.05 0.05 28 1018.1
20260508003413 59 42 2.6 2.6 0.00 0.05 0.05 28 1018.0
20260508002911 60 17 1.7 2.6 0.00 0.05 0.05 27 1017.9
20260508002407 60 28 1.7 1.7 0.00 0.05 0.05 27 1018.0
20260508001903 61 23 2.6 5.2 0.00 0.05 0.05 27 1018.0
20260508001359 61 348 5.2 7.0 0.00 0.05 0.05 27 1018.1
20260508000856 62 19 3.5 5.2 0.00 0.05 0.05 27 1018.1
20260508000352 62 23 4.3 5.2 0.00 0.05 0.05 26 1017.7
20260507235849 62 5 2.6 2.6 0.00 0.05 0.05 27 1017.9
20260507235346 62 42 2.6 2.6 0.00 0.05 0.05 27 1017.9
20260507234843 61 83 4.3 7.0 0.00 0.05 0.05 26 1018.0
20260507234340 60 36 1.7 1.7 0.00 0.05 0.05 27 1018.0
20260507233836 60 62 0.9 0.9 0.00 0.05 0.05 28 1018.0
20260507233334 61 22 1.7 1.7 0.00 0.05 0.05 28 1018.1
20260507232832 60 2 2.6 2.6 0.00 0.05 0.05 28 1018.2
20260507232328 59 30 1.7 1.7 0.00 0.05 0.05 29 1018.0
20260507231826 59 19 2.6 2.6 0.00 0.05 0.05 28 1018.0
20260507231322 60 29 0.9 1.7 0.00 0.05 0.05 28 1018.0
20260507230818 61 19 0.9 2.6 0.00 0.05 0.05 27 1018.2
20260507230316 60 58 1.7 1.7 0.00 0.05 0.05 28 1018.1
20260507225816 61 25 2.6 4.3 0.00 0.05 0.05 27 1018.2
20260507225312 60 345 0.9 1.7 0.00 0.05 0.05 27 1018.1
20260507224808 60 332 5.2 7.0 0.00 0.05 0.05 28 1018.0
20260507224305 60 8 3.5 5.2 0.00 0.05 0.05 27 1018.4
20260507223801 59 23 4.3 5.2 0.00 0.05 0.05 26 1018.2
20260507223257 60 28 6.1 7.0 0.00 0.05 0.05 27 1018.0
20260507222754 59 31 1.7 2.6 0.00 0.05 0.05 28 1018.2
20260507222250 60 19 3.5 5.2 0.00 0.05 0.05 27 1018.2
20260507221748 61 11 4.3 5.2 0.00 0.05 0.05 26 1018.4
20260507221244 62 29 6.1 7.0 0.00 0.05 0.05 25 1018.4
20260507220740 60 31 3.5 5.2 0.00 0.05 0.05 27 1018.2
20260507220239 60 301 4.3 5.2 0.00 0.05 0.05 26 1018.4
20260507215735 62 1 1.7 1.7 0.00 0.05 0.05 26 1018.4
20260507215233 63 40 3.5 4.3 0.00 0.05 0.05 25 1018.6
20260507214729 64 68 3.5 5.2 0.00 0.05 0.05 25 1018.5
20260507214227 64 115 2.6 4.3 0.00 0.05 0.05 25 1018.6
20260507213722 63 11 7.0 7.8 0.00 0.05 0.05 24 1018.4
20260507213219 62 43 7.0 8.7 0.00 0.05 0.05 24 1018.9
20260507212715 63 4 5.2 7.0 0.00 0.05 0.05 26 1018.7
20260507212212 62 117 4.3 5.2 0.00 0.05 0.05 27 1018.9
20260507211709 62 56 1.7 2.6 0.00 0.05 0.05 28 1018.9
20260507211204 61 155 1.7 2.6 0.00 0.05 0.05 30 1019.1
20260507210702 62 12 2.6 2.6 0.00 0.05 0.05 30 1018.9
20260507210159 62 51 4.3 6.1 0.00 0.05 0.05 29 1019.0
20260507205655 62 41 0.9 0.9 0.00 0.05 0.05 29 1019.4
20260507205152 62 23 1.7 1.7 0.00 0.05 0.05 29 1019.4
20260507204648 61 352 4.3 6.1 0.00 0.05 0.05 30 1019.2
20260507204146 60 346 3.5 4.3 0.00 0.05 0.05 29 1019.5
20260507203644 60 44 1.7 2.6 0.00 0.05 0.05 30 1019.6
20260507203141 60 22 3.5 6.1 0.00 0.05 0.05 30 1019.5
20260507202636 61 24 0.9 1.7 0.00 0.05 0.05 30 1019.7
20260507202133 61 7 0.9 0.9 0.00 0.05 0.05 31 1019.9
20260507201628 61 42 3.5 5.2 0.00 0.05 0.05 33 1019.9
20260507201125 61 300 3.5 4.3 0.00 0.05 0.05 31 1019.9
20260507200621 60 14 3.5 5.2 0.00 0.05 0.05 30 1019.7
20260507200117 60 50 2.6 5.2 0.00 0.05 0.05 33 1019.7
20260507195615 60 32 0.9 1.7 0.00 0.05 0.05 34 1019.9
20260507195112 60 26 1.7 2.6 0.00 0.05 0.05 31 1020.4
20260507194608 60 48 1.7 2.6 0.00 0.05 0.05 32 1020.1
20260507194103 60 21 1.7 2.6 0.00 0.05 0.05 32 1020.2
20260507193601 59 18 1.7 1.7 0.00 0.05 0.05 31 1020.1
20260507193058 60 76 3.5 5.2 0.00 0.05 0.05 32 1020.1
20260507192554 59 76 1.7 1.7 0.00 0.05 0.05 33 1020.4
20260507192051 58 47 0.9 1.7 0.00 0.05 0.05 34 1020.2
20260507191546 58 53 0.9 1.7 0.00 0.05 0.05 34 1020.4
20260507191044 57 100 2.6 2.6 0.00 0.05 0.05 33 1020.5
20260507190541 58 335 2.6 4.3 0.00 0.05 0.05 35 1020.5
20260507190040 58 41 0.9 0.9 0.00 0.05 0.05 32 1020.6
20260507185538 59 5 1.7 1.7 0.00 0.05 0.05 30 1021.0
20260507185034 59 60 2.6 2.6 0.00 0.05 0.05 30 1020.9
20260507184532 58 21 1.7 1.7 0.00 0.05 0.05 30 1021.0
20260507184030 58 49 0.9 0.9 0.00 0.05 0.05 31 1020.7
20260507183525 58 25 1.7 1.7 0.00 0.05 0.05 29 1020.7
20260507183023 58 49 2.6 2.6 0.00 0.05 0.05 30 1020.9
20260507182519 57 70 1.7 2.6 0.00 0.05 0.05 29 1020.7
20260507182015 56 19 0.0 0.9 0.00 0.05 0.05 29 1020.7
20260507181512 56 320 1.7 1.7 0.00 0.05 0.05 28 1021.0
20260507181008 56 46 1.7 1.7 0.00 0.05 0.05 28 1020.7
20260507180505 56 345 0.0 0.9 0.00 0.05 0.05 31 1020.5
20260507180001 56 308 0.0 0.9 0.00 0.05 0.05 31 1020.7
20260507175458 57 63 1.7 2.6 0.00 0.05 0.05 30 1020.6
20260507174955 57 24 0.9 0.9 0.00 0.05 0.05 33 1020.9
20260507174452 57 38 1.7 1.7 0.00 0.05 0.05 32 1020.7
20260507173950 57 11 0.9 0.9 0.00 0.05 0.05 30 1021.0
20260507173447 56 37 0.9 0.9 0.00 0.05 0.05 32 1021.2
20260507172944 55 49 0.9 1.7 0.00 0.05 0.05 30 1021.6
20260507172440 55 22 2.6 2.6 0.00 0.05 0.05 34 1021.6
20260507171937 53 139 2.6 2.6 0.00 0.05 0.05 33 1021.4
20260507171432 52 337 0.9 1.7 0.00 0.05 0.05 37 1021.5
20260507170930 52 17 1.7 1.7 0.00 0.05 0.05 39 1021.2
20260507170426 52 54 0.9 1.7 0.00 0.05 0.05 38 1021.7
20260507165923 51 13 2.6 2.6 0.07 0.05 0.05 41 1021.5
20260507165419 51 38 2.6 2.6 0.07 0.05 0.05 39 1021.6
20260507164914 52 326 0.9 0.9 0.00 0.04 0.04 35 1021.4
20260507164412 51 38 2.6 2.6 0.07 0.04 0.04 38 1021.5
20260507163909 51 50 2.6 2.6 0.07 0.04 0.04 37 1021.6
20260507163407 51 10 1.7 1.7 0.00 0.03 0.03 34 1021.7
20260507162903 52 15 1.7 1.7 0.05 0.03 0.03 37 1021.7
20260507162358 52 29 0.0 0.9 0.17 0.03 0.03 36 1021.6
20260507161856 51 2 2.6 2.6 0.12 0.02 0.02 37 1021.7
20260507161352 51 10 3.5 4.3 0.12 0.02 0.02 36 1021.7
20260507160849 51 13 1.7 2.6 0.00 0.00 0.00 35 1021.7
20260507160344 50 7 2.6 4.3 0.00 0.00 0.00 35 1021.9
20260507155841 50 26 0.0 0.9 0.00 0.00 0.00 37 1021.7
20260507155336 50 34 0.9 0.9 0.00 0.00 0.00 39 1021.7
20260507154834 50 51 0.9 1.7 0.00 0.00 0.00 42 1022.0
20260507154331 49 6 1.7 1.7 0.00 0.00 0.00 41 1022.1
20260507153828 49 19 0.9 1.7 0.00 0.00 0.00 41 1021.9
20260507153324 48 60 0.9 1.7 0.00 0.00 0.00 43 1021.9
20260507152821 48 32 1.7 1.7 0.00 0.00 0.00 43 1021.9
20260507152317 48 330 2.6 2.6 0.00 0.00 0.00 44 1021.9
20260507151813 47 21 1.7 1.7 0.00 0.00 0.00 45 1022.0
20260507151309 47 306 1.7 1.7 0.00 0.00 0.00 47 1022.0
20260507150807 46 48 0.9 0.9 0.00 0.00 0.00 51 1022.0
20260507150303 45 30 1.7 2.6 0.00 0.00 0.00 48 1022.1
20260507145759 45 16 1.7 2.6 0.00 0.00 0.00 50 1021.9
20260507145256 44 22 0.9 0.9 0.00 0.00 0.00 51 1022.0
20260507144753 43 26 1.7 2.6 0.00 0.00 0.00 51 1021.9
20260507144250 42 37 1.7 1.7 0.00 0.00 0.00 53 1022.1
20260507143747 42 32 1.7 2.6 0.00 0.00 0.00 55 1022.2
20260507143244 41 19 1.7 1.7 0.00 0.00 0.00 53 1022.0
20260507142740 41 2 0.9 1.7 0.00 0.00 0.00 54 1022.1
20260507142237 41 13 0.9 1.7 0.00 0.00 0.00 55 1021.9
20260507141733 41 19 0.9 1.7 0.00 0.00 0.00 54 1021.9
20260507141230 40 9 0.9 1.7 0.00 0.00 0.00 55 1021.9
20260507140726 40 19 2.6 2.6 0.00 0.00 0.00 55 1022.0
20260507140224 39 14 2.6 2.6 0.00 0.00 0.00 57 1022.0
20260507135721 39 353 2.6 2.6 0.00 0.00 0.00 57 1022.2
20260507135218 38 30 0.0 0.9 0.00 0.00 0.00 60 1022.0
20260507134714 38 30 0.0 0.9 0.00 0.00 0.00 57 1022.0
20260507134211 37 28 0.0 0.9 0.00 0.00 0.00 59 1021.7
20260507133707 37 46 0.9 1.7 0.00 0.00 0.00 57 1021.7
20260507133204 37 19 2.6 5.2 0.00 0.00 0.00 56 1021.9
20260507132701 35 22 3.5 5.2 0.00 0.00 0.00 62 1021.7
20260507132157 36 46 0.0 0.0 0.00 0.00 0.00 62 1021.5
20260507131654 35 132 1.7 1.7 0.00 0.00 0.00 61 1021.6
20260507131152 35 96 0.9 1.7 0.00 0.00 0.00 59 1021.6
20260507130648 35 152 1.7 1.7 0.00 0.00 0.00 61 1021.5
20260507130146 34 121 0.9 0.9 0.00 0.00 0.00 63 1021.4
20260507125645 34 169 1.7 1.7 0.00 0.00 0.00 64 1021.4
20260507125142 33 183 1.7 1.7 0.00 0.00 0.00 65 1021.5
20260507124638 33 186 0.9 0.9 0.00 0.00 0.00 65 1021.2
20260507124136 33 192 0.9 0.9 0.00 0.00 0.00 66 1021.2
20260507123634 33 177 0.9 0.9 0.00 0.00 0.00 66 1021.2
20260507123131 33 238 0.9 0.9 0.00 0.00 0.00 64 1021.2
20260507122626 32 10 0.9 1.7 0.00 0.00 0.00 63 1021.0
20260507122122 32 219 0.9 0.9 0.00 0.00 0.00 66 1021.1
20260507121618 32 169 0.9 0.9 0.00 0.00 0.00 66 1021.2
20260507121114 32 158 0.9 0.9 0.00 0.00 0.00 64 1021.0
20260507120610 32 200 1.7 1.7 0.00 0.00 0.00 65 1021.0
20260507120107 32 313 0.0 0.0 0.00 0.00 0.00 61 1021.0
20260507115603 32 147 0.9 1.7 0.00 0.00 0.00 65 1021.1
20260507115059 31 181 1.7 1.7 0.00 0.00 0.00 67 1021.2
20260507114555 31 189 0.0 0.9 0.00 0.00 0.00 67 1021.1
20260507114053 31 198 0.9 0.9 0.00 0.00 0.00 68 1021.0
20260507113549 31 38 0.9 1.7 0.00 0.00 0.00 67 1021.2
20260507113047 31 184 0.0 0.0 0.00 0.00 0.00 68 1021.2
20260507112545 32 177 0.9 0.9 0.00 0.00 0.00 65 1021.2
20260507112041 32 112 0.9 0.9 0.00 0.00 0.00 63 1021.0
20260507111538 32 121 0.9 1.7 0.00 0.00 0.00 64 1021.0
20260507111035 32 65 0.0 0.0 0.00 0.00 0.00 63 1021.0
20260507110531 32 148 0.9 0.9 0.00 0.00 0.00 65 1021.0
20260507110028 31 202 0.0 0.9 0.00 0.00 0.00 65 1020.9
20260507105525 31 168 1.7 1.7 0.00 0.00 0.00 68 1020.9
20260507105021 31 173 0.9 0.9 0.00 0.00 0.00 66 1021.1
20260507104519 31 127 0.9 0.9 0.00 0.00 0.00 64 1021.1
20260507104015 31 151 1.7 1.7 0.00 0.00 0.00 63 1021.0
20260507103511 31 148 0.9 0.9 0.00 0.00 0.00 64 1021.1
20260507103007 32 175 0.9 0.9 0.00 0.00 0.00 65 1021.0
20260507102504 32 169 0.9 1.7 0.00 0.00 0.00 62 1021.1
20260507102000 31 82 0.9 1.7 0.00 0.00 0.00 65 1021.4
20260507101456 30 148 0.9 1.7 0.00 0.00 0.00 69 1021.4
20260507100953 30 133 1.7 1.7 0.00 0.00 0.00 75 1021.6
20260507100450 29 155 0.9 0.9 0.00 0.00 0.00 76 1021.2
20260507095948 30 164 0.9 0.9 0.00 0.00 0.00 76 1021.2
20260507095445 29 164 0.0 0.0 0.00 0.00 0.00 76 1021.2
20260507094942 29 141 1.7 1.7 0.00 0.00 0.00 79 1021.1
20260507094438 29 144 0.9 0.9 0.00 0.00 0.00 78 1021.1
20260507093935 29 165 1.7 1.7 0.00 0.00 0.00 78 1021.2
20260507093433 29 148 0.9 1.7 0.00 0.00 0.00 81 1021.1
20260507092931 29 159 0.9 1.7 0.00 0.00 0.00 80 1021.1
20260507092427 29 167 0.9 0.9 0.00 0.00 0.00 79 1021.1
20260507091924 29 180 1.7 1.7 0.00 0.00 0.00 78 1021.2
20260507091420 29 171 1.7 1.7 0.00 0.00 0.00 78 1021.4
20260507090916 28 169 0.9 0.9 0.00 0.00 0.00 80 1021.4
20260507090413 29 159 0.9 0.9 0.00 0.00 0.00 80 1021.5
20260507085909 28 96 0.9 0.9 0.00 0.00 0.00 77 1021.4
20260507085406 28 156 0.9 0.9 0.00 0.00 0.00 81 1021.5
20260507084904 28 161 1.7 1.7 0.00 0.00 0.00 83 1021.4
20260507084400 28 153 0.0 0.9 0.00 0.00 0.00 82 1021.2
20260507083858 29 86 0.9 0.9 0.00 0.00 0.00 79 1021.4
20260507083353 29 150 0.9 1.7 0.00 0.00 0.00 78 1021.4
20260507082850 28 168 0.0 0.9 0.00 0.00 0.00 80 1021.4
20260507082346 28 172 0.9 0.9 0.00 0.00 0.00 81 1021.7
20260507081843 28 179 0.9 0.9 0.00 0.00 0.00 84 1021.6
20260507081339 27 157 0.9 0.9 0.00 0.00 0.00 86 1021.5
20260507080836 27 164 0.9 0.9 0.00 0.00 0.00 88 1021.7
20260507080332 27 123 0.9 0.9 0.00 0.00 0.00 91 1021.7
20260507075828 26 150 0.0 0.0 0.00 0.00 0.00 92 1021.6
20260507075324 26 166 0.9 0.9 0.00 0.00 0.00 92 1021.6
20260507074820 26 172 0.0 0.0 0.00 0.00 0.00 92 1021.7
20260507074318 27 156 1.7 1.7 0.00 0.00 0.00 93 1021.6
20260507073815 27 127 0.9 0.9 0.00 0.00 0.00 93 1021.6
20260507073312 27 156 0.0 0.0 0.00 0.00 0.00 94 1021.6
20260507072809 27 183 0.0 0.0 0.00 0.00 0.00 95 1021.7
20260507072308 26 176 1.7 1.7 0.00 0.00 0.00 96 1021.7
20260507071804 26 153 0.9 0.9 0.00 0.00 0.00 96 1022.0
20260507071300 26 167 0.0 0.9 0.00 0.00 0.00 96 1021.9
20260507070756 26 160 0.9 0.9 0.00 0.00 0.00 97 1022.0
20260507070254 26 151 0.9 0.9 0.00 0.00 0.00 97 1021.9
20260507065751 26 160 0.9 0.9 0.00 0.00 0.00 97 1022.0
20260507065247 26 147 0.9 0.9 0.00 0.00 0.00 97 1022.1
20260507064745 26 155 0.0 0.9 0.00 0.00 0.00 97 1021.7
20260507064244 26 156 0.0 0.0 0.00 0.00 0.00 97 1022.0
20260507063741 26 155 0.9 0.9 0.00 0.00 0.00 97 1022.1
20260507063237 26 111 0.9 0.9 0.00 0.00 0.00 97 1021.9
20260507062734 26 101 0.9 0.9 0.00 0.00 0.00 97 1021.7
20260507062232 26 104 0.9 0.9 0.00 0.00 0.00 97 1021.5
20260507061730 26 102 0.0 0.9 0.00 0.00 0.00 97 1021.9
20260507061227 26 139 0.9 0.9 0.00 0.00 0.00 97 1021.7
20260507060725 27 67 0.0 0.0 0.00 0.00 0.00 97 1021.9
20260507060222 27 25 0.0 0.0 0.00 0.00 0.00 97 1021.6
20260507055718 27 23 0.0 0.0 0.00 0.24 0.24 97 1021.7
20260507055213 27 22 0.0 0.0 0.00 0.24 0.24 97 1021.5
20260507054709 27 22 0.0 0.9 0.00 0.24 0.24 96 1021.6
20260507054207 28 21 0.0 0.0 0.00 0.24 0.24 97 1021.7
20260507053704 28 17 0.0 0.0 0.00 0.24 0.24 96 1021.9
20260507053202 28 17 0.0 0.0 0.00 0.24 0.24 96 1021.5
20260507052701 28 19 0.0 0.0 0.00 0.24 0.24 96 1021.7
20260507052155 28 20 0.0 0.0 0.00 0.24 0.24 96 1021.7
20260507051653 28 21 0.0 0.0 0.00 0.24 0.24 96 1021.6
20260507051149 28 14 0.0 0.0 0.00 0.24 0.24 96 1021.4
20260507050647 29 328 0.0 0.0 0.00 0.24 0.24 96 1021.6
20260507050144 29 334 0.0 0.0 0.00 0.24 0.24 96 1021.4
20260507045641 29 337 0.0 0.0 0.00 0.24 0.24 96 1021.5
20260507045137 29 13 0.9 0.9 0.00 0.24 0.24 96 1021.9
20260507044634 28 319 0.0 0.0 0.00 0.24 0.24 96 1021.6
20260507044131 28 1 0.9 1.7 0.00 0.24 0.24 96 1021.4
20260507043627 28 310 0.0 0.0 0.00 0.24 0.24 96 1021.6
20260507043124 28 341 0.0 0.0 0.00 0.24 0.24 96 1021.4
20260507042620 28 342 0.0 0.9 0.00 0.24 0.24 96 1021.4
20260507042116 28 20 0.0 0.0 0.00 0.24 0.24 95 1021.6
20260507041613 28 355 0.0 0.0 0.00 0.24 0.24 95 1021.6
20260507041110 28 357 0.0 0.0 0.00 0.24 0.24 95 1021.6
20260507040607 28 357 0.0 0.0 0.00 0.24 0.24 95 1021.9
20260507035559 28 354 0.0 0.0 0.00 0.24 0.24 95 1021.5
20260507035055 28 318 0.0 0.0 0.00 0.24 0.24 95 1021.5
20260507034552 28 356 0.0 0.0 0.00 0.24 0.24 95 1021.6
20260507034050 28 16 0.0 0.0 0.00 0.24 0.24 94 1021.7
20260507033548 28 16 0.0 0.9 0.00 0.24 0.24 94 1021.6
20260507033045 28 9 0.0 0.0 0.00 0.24 0.24 94 1021.4
20260507032542 29 19 0.0 0.0 0.00 0.24 0.24 94 1021.5
20260507032038 29 26 0.0 0.9 0.00 0.24 0.24 94 1021.2
20260507031534 29 352 0.0 0.0 0.00 0.24 0.24 94 1021.0
20260507031032 29 22 0.9 0.9 0.00 0.24 0.24 94 1021.2
20260507030528 29 346 0.0 0.0 0.00 0.24 0.24 93 1021.0